Time,TemperatureF,DewpointF,PressureIn,WindDirection,WindDirectionDegrees,WindSpeedMPH,WindSpeedGustMPH,Humidity,HourlyPrecipIn,Conditions,Clouds,dailyrainin,SoftwareType,DateUTC
2013-02-21 00:00:00,13.7,4.1,29.62,North,349,0.0,0.0,65,0.00,CLR,,0.00,WeatherDisplay:10.37,2013-02-21 06:00:00,
2013-02-21 00:10:00,13.7,4.4,29.62,North,349,0.0,0.0,66,0.00,CLR,,0.00,WeatherDisplay:10.37,2013-02-21 06:10:00,
2013-02-21 00:20:00,13.6,4.7,29.62,North,349,0.0,0.0,67,0.00,CLR,,0.00,WeatherDisplay:10.37,2013-02-21 06:20:00,
2013-02-21 00:30:00,13.6,4.7,29.62,North,349,0.0,0.0,67,0.00,CLR,,0.00,WeatherDisplay:10.37,2013-02-21 06:30:00,
2013-02-21 00:40:00,13.7,4.7,29.62,North,349,0.0,0.0,67,0.00,CLR,,0.00,WeatherDisplay:10.37,2013-02-21 06:40:00,
2013-02-21 00:50:00,13.8,4.9,29.62,North,349,0.0,0.0,67,0.00,CLR,,0.00,WeatherDisplay:10.37,2013-02-21 06:50:00,
2013-02-21 01:00:00,14.2,5.2,29.61,North,349,0.0,0.0,67,0.00,CLR,,0.00,WeatherDisplay:10.37,2013-02-21 07:00:00,
2013-02-21 01:10:00,14.3,5.3,29.61,North,349,0.0,0.0,67,0.00,CLR,,0.00,WeatherDisplay:10.37,2013-02-21 07:10:00,
2013-02-21 01:20:00,14.6,5.6,29.62,North,349,0.0,0.0,67,0.00,CLR,,0.00,WeatherDisplay:10.37,2013-02-21 07:20:00,
2013-02-21 01:30:00,14.8,6.1,29.61,North,349,0.0,0.0,68,0.00,CLR,,0.00,WeatherDisplay:10.37,2013-02-21 07:30:00,
2013-02-21 01:40:00,15.0,6.3,29.62,North,349,0.0,0.0,68,0.00,CLR,,0.00,WeatherDisplay:10.37,2013-02-21 07:40:00,
2013-02-21 01:50:00,15.0,6.0,29.62,North,349,0.0,0.0,67,0.00,CLR,,0.00,WeatherDisplay:10.37,2013-02-21 07:50:00,
2013-02-21 02:00:00,15.3,6.3,29.62,North,349,0.0,0.0,67,0.00,CLR,,0.00,WeatherDisplay:10.37,2013-02-21 08:00:00,
2013-02-21 02:10:00,15.6,6.6,29.62,North,349,0.0,0.0,67,0.00,CLR,,0.00,WeatherDisplay:10.37,2013-02-21 08:10:00,
2013-02-21 02:20:00,15.8,7.1,29.61,North,349,0.0,0.0,68,0.00,CLR,,0.00,WeatherDisplay:10.37,2013-02-21 08:20:00,
2013-02-21 02:30:00,15.9,6.9,29.61,North,349,0.0,1.0,67,0.00,CLR,,0.00,WeatherDisplay:10.37,2013-02-21 08:30:00,
2013-02-21 02:40:00,16.2,7.2,29.60,North,349,0.0,0.0,67,0.00,CLR,,0.00,WeatherDisplay:10.37,2013-02-21 08:40:00,
2013-02-21 02:50:00,16.6,7.5,29.60,North,349,0.0,2.0,67,0.00,CLR,,0.00,WeatherDisplay:10.37,2013-02-21 08:50:00,
2013-02-21 03:00:00,16.9,7.2,29.59,NNW,348,0.0,2.0,65,0.00,CLR,,0.00,WeatherDisplay:10.37,2013-02-21 09:00:00,
2013-02-21 03:10:00,17.1,7.3,29.60,NNW,347,0.0,1.0,65,0.00,CLR,,0.00,WeatherDisplay:10.37,2013-02-21 09:10:00,
2013-02-21 03:20:00,17.2,7.4,29.59,NNW,346,0.0,3.0,65,0.00,CLR,,0.00,WeatherDisplay:10.37,2013-02-21 09:20:00,
2013-02-21 03:30:00,17.4,7.6,29.60,NNW,346,0.0,3.0,65,0.00,CLR,,0.00,WeatherDisplay:10.37,2013-02-21 09:30:00,
2013-02-21 03:40:00,17.6,7.8,29.60,NNW,346,0.0,0.0,65,0.00,CLR,,0.00,WeatherDisplay:10.37,2013-02-21 09:40:00,
2013-02-21 03:50:00,17.8,8.0,29.61,NNW,346,0.0,0.0,65,0.00,CLR,,0.00,WeatherDisplay:10.37,2013-02-21 09:50:00,
2013-02-21 04:00:00,18.0,8.2,29.62,NNW,346,0.0,0.0,65,0.00,CLR,,0.00,WeatherDisplay:10.37,2013-02-21 10:00:00,
2013-02-21 04:10:00,18.3,8.5,29.63,NNW,346,0.0,1.0,65,0.00,CLR,,0.00,WeatherDisplay:10.37,2013-02-21 10:10:00,
2013-02-21 04:20:00,18.5,8.7,29.63,NNW,346,0.0,1.0,65,0.00,CLR,,0.00,WeatherDisplay:10.37,2013-02-21 10:20:00,
2013-02-21 04:30:00,18.5,8.7,29.63,NNW,345,0.0,5.0,65,0.00,CLR,,0.00,WeatherDisplay:10.37,2013-02-21 10:30:00,
2013-02-21 04:40:00,18.6,8.8,29.63,NNW,344,0.0,5.0,65,0.00,CLR,,0.00,WeatherDisplay:10.37,2013-02-21 10:40:00,
2013-02-21 04:50:00,18.6,9.1,29.64,NNW,344,0.0,2.0,66,0.00,CLR,,0.00,WeatherDisplay:10.37,2013-02-21 10:50:00,
2013-02-21 05:00:00,18.8,9.3,29.63,NNW,342,0.0,2.0,66,0.00,CLR,,0.00,WeatherDisplay:10.37,2013-02-21 11:00:00,
2013-02-21 05:10:00,19.0,9.8,29.62,North,352,0.0,3.0,67,0.00,CLR,,0.00,WeatherDisplay:10.37,2013-02-21 11:10:00,
2013-02-21 05:20:00,19.1,9.9,29.61,North,359,0.0,4.0,67,0.00,CLR,,0.00,WeatherDisplay:10.37,2013-02-21 11:20:00,
2013-02-21 05:30:00,19.3,10.1,29.61,North,358,0.0,4.0,67,0.00,CLR,,0.00,WeatherDisplay:10.37,2013-02-21 11:30:00,
2013-02-21 05:40:00,19.4,10.2,29.60,North,350,1.0,6.0,67,0.00,CLR,,0.00,WeatherDisplay:10.37,2013-02-21 11:40:00,
2013-02-21 05:50:00,19.7,10.8,29.60,North,2,0.0,6.0,68,0.00,CLR,,0.00,WeatherDisplay:10.37,2013-02-21 11:50:00,
2013-02-21 06:00:00,20.0,11.1,29.63,North,350,0.0,5.0,68,0.00,CLR,,0.00,WeatherDisplay:10.37,2013-02-21 12:00:00,
2013-02-21 06:10:00,20.3,11.7,29.59,NNW,347,1.0,6.0,69,0.00,CLR,,0.00,WeatherDisplay:10.37,2013-02-21 12:10:00,
2013-02-21 06:20:00,20.4,11.8,29.61,North,356,0.0,4.0,69,0.00,CLR,,0.00,WeatherDisplay:10.37,2013-02-21 12:20:00,
2013-02-21 06:30:00,20.6,12.4,29.60,North,357,1.0,6.0,70,0.00,CLR,,0.00,WeatherDisplay:10.37,2013-02-21 12:30:00,
2013-02-21 06:40:00,20.8,12.2,29.60,North,1,0.0,4.0,69,0.00,CLR,,0.00,WeatherDisplay:10.37,2013-02-21 12:40:00,
2013-02-21 06:50:00,20.9,12.3,29.61,North,360,0.0,3.0,69,0.00,CLR,,0.00,WeatherDisplay:10.37,2013-02-21 12:50:00,
2013-02-21 07:00:00,21.1,12.8,29.61,North,360,0.0,3.0,70,0.00,CLR,,0.00,WeatherDisplay:10.37,2013-02-21 13:00:00,
2013-02-21 07:10:00,21.2,12.9,29.61,North,360,0.0,3.0,70,0.00,CLR,,0.00,WeatherDisplay:10.37,2013-02-21 13:10:00,
2013-02-21 07:20:00,21.2,13.0,29.62,North,360,0.0,3.0,70,0.00,CLR,,0.00,WeatherDisplay:10.37,2013-02-21 13:20:00,
2013-02-21 07:30:00,21.4,13.1,29.62,North,360,1.0,4.0,70,0.00,CLR,,0.00,WeatherDisplay:10.37,2013-02-21 13:30:00,
2013-02-21 07:40:00,21.5,13.5,29.63,North,0,0.0,4.0,71,0.00,CLR,,0.00,WeatherDisplay:10.37,2013-02-21 13:40:00,
2013-02-21 07:50:00,21.7,13.7,29.63,North,0,0.0,1.0,71,0.00,CLR,,0.00,WeatherDisplay:10.37,2013-02-21 13:50:00,
2013-02-21 08:00:00,22.0,14.0,29.63,North,360,0.0,2.0,71,0.00,CLR,,0.00,WeatherDisplay:10.37,2013-02-21 14:00:00,
2013-02-21 08:10:00,22.1,14.1,29.62,North,0,0.0,5.0,71,0.00,CLR,,0.00,WeatherDisplay:10.37,2013-02-21 14:10:00,
2013-02-21 08:20:00,22.4,14.7,29.61,North,359,1.0,5.0,72,0.00,CLR,,0.00,WeatherDisplay:10.37,2013-02-21 14:20:00,
2013-02-21 08:30:00,22.6,14.9,29.60,North,354,2.0,5.0,72,0.00,CLR,,0.00,WeatherDisplay:10.37,2013-02-21 14:30:00,
2013-02-21 08:40:00,22.8,15.1,29.60,North,360,1.0,5.0,72,0.00,CLR,,0.00,WeatherDisplay:10.37,2013-02-21 14:40:00,
2013-02-21 08:50:00,23.0,15.3,29.60,NNE,13,1.0,5.0,72,0.00,CLR,,0.00,WeatherDisplay:10.37,2013-02-21 14:50:00,
2013-02-21 09:00:00,23.1,15.4,29.59,North,10,1.0,6.0,72,0.00,CLR,,0.00,WeatherDisplay:10.37,2013-02-21 15:00:00,
2013-02-21 09:10:00,23.5,16.1,29.60,NNE,15,2.0,7.0,73,0.00,CLR,,0.00,WeatherDisplay:10.37,2013-02-21 15:10:00,
2013-02-21 09:20:00,23.6,16.2,29.61,North,7,1.0,5.0,73,0.00,CLR,,0.00,WeatherDisplay:10.37,2013-02-21 15:20:00,
2013-02-21 09:30:00,23.9,16.5,29.60,North,360,1.0,6.0,73,0.00,CLR,,0.00,WeatherDisplay:10.37,2013-02-21 15:30:00,
2013-02-21 09:40:00,24.0,16.6,29.60,North,3,2.0,5.0,73,0.00,CLR,,0.00,WeatherDisplay:10.37,2013-02-21 15:40:00,
2013-02-21 09:50:00,24.2,16.8,29.61,North,2,1.0,6.0,73,0.00,CLR,,0.00,WeatherDisplay:10.37,2013-02-21 15:50:00,
2013-02-21 10:00:00,24.3,16.6,29.61,NNE,14,5.0,9.0,72,0.00,CLR,,0.00,WeatherDisplay:10.37,2013-02-21 16:00:00,
2013-02-21 10:10:00,24.6,17.1,29.62,North,5,0.0,6.0,73,0.00,CLR,,0.00,WeatherDisplay:10.37,2013-02-21 16:10:00,
2013-02-21 10:20:00,24.8,17.1,29.61,NNE,15,3.0,8.0,72,0.00,CLR,,0.00,WeatherDisplay:10.37,2013-02-21 16:20:00,
2013-02-21 10:30:00,24.6,16.9,29.60,NNE,21,5.0,8.0,72,0.00,CLR,,0.00,WeatherDisplay:10.37,2013-02-21 16:30:00,
2013-02-21 10:40:00,24.6,16.9,29.62,NE,44,1.0,5.0,72,0.00,CLR,,0.00,WeatherDisplay:10.37,2013-02-21 16:40:00,
2013-02-21 10:50:00,24.6,16.9,29.61,North,7,1.0,6.0,72,0.00,CLR,,0.00,WeatherDisplay:10.37,2013-02-21 16:50:00,
2013-02-21 11:00:00,24.8,17.4,29.59,North,11,1.0,5.0,73,0.00,CLR,,0.00,WeatherDisplay:10.37,2013-02-21 17:00:00,
2013-02-21 11:10:00,25.1,17.7,29.58,North,4,2.0,6.0,73,0.00,CLR,,0.00,WeatherDisplay:10.37,2013-02-21 17:10:00,
2013-02-21 11:20:00,25.1,17.3,29.57,NNE,17,5.0,8.0,72,0.00,CLR,,0.00,WeatherDisplay:10.37,2013-02-21 17:20:00,
2013-02-21 11:30:00,25.5,18.1,29.57,North,8,2.0,7.0,73,0.00,CLR,,0.00,WeatherDisplay:10.37,2013-02-21 17:30:00,
2013-02-21 11:40:00,25.8,18.4,29.57,NNE,12,1.0,6.0,73,0.00,CLR,,0.00,WeatherDisplay:10.37,2013-02-21 17:40:00,
2013-02-21 11:50:00,26.4,18.9,29.57,North,0,2.0,5.0,73,0.00,CLR,,0.00,WeatherDisplay:10.37,2013-02-21 17:50:00,
2013-02-21 12:00:00,26.6,18.8,29.56,NNE,17,3.0,7.0,72,0.00,CLR,,0.00,WeatherDisplay:10.37,2013-02-21 18:00:00,
2013-02-21 12:10:00,26.5,18.7,29.54,North,11,5.0,9.0,72,0.00,CLR,,0.00,WeatherDisplay:10.37,2013-02-21 18:10:00,
2013-02-21 12:20:00,26.7,19.2,29.53,NNE,16,5.0,9.0,73,0.00,CLR,,0.00,WeatherDisplay:10.37,2013-02-21 18:20:00,
2013-02-21 12:30:00,26.9,19.1,29.53,NNE,17,7.0,12.0,72,0.00,CLR,,0.00,WeatherDisplay:10.37,2013-02-21 18:30:00,
2013-02-21 12:40:00,26.6,19.1,29.52,NNE,21,5.0,9.0,73,0.00,CLR,,0.00,WeatherDisplay:10.37,2013-02-21 18:40:00,
2013-02-21 12:50:00,26.7,19.2,29.52,NNE,18,3.0,8.0,73,0.00,CLR,,0.00,WeatherDisplay:10.37,2013-02-21 18:50:00,
2013-02-21 13:00:00,26.6,19.1,29.51,NNE,18,2.0,9.0,73,0.00,CLR,,0.00,WeatherDisplay:10.37,2013-02-21 19:00:00,
2013-02-21 13:10:00,26.7,19.2,29.50,NNE,20,3.0,7.0,73,0.00,CLR,,0.00,WeatherDisplay:10.37,2013-02-21 19:10:00,
2013-02-21 13:20:00,27.2,19.7,29.49,North,10,2.0,7.0,73,0.00,CLR,,0.00,WeatherDisplay:10.37,2013-02-21 19:20:00,
2013-02-21 13:30:00,27.6,20.1,29.47,NE,34,6.0,12.0,73,0.00,CLR,,0.00,WeatherDisplay:10.37,2013-02-21 19:30:00,
2013-02-21 13:40:00,27.8,20.2,29.48,NE,49,3.0,12.0,73,0.00,CLR,,0.00,WeatherDisplay:10.37,2013-02-21 19:40:00,
2013-02-21 13:50:00,27.8,20.2,29.47,NNE,29,5.0,9.0,73,0.00,CLR,,0.00,WeatherDisplay:10.37,2013-02-21 19:50:00,
2013-02-21 14:00:00,27.7,20.2,29.47,NE,39,3.0,12.0,73,0.00,CLR,,0.00,WeatherDisplay:10.37,2013-02-21 20:00:00,
2013-02-21 14:10:00,27.4,20.5,29.47,NE,37,5.0,12.0,75,0.00,CLR,,0.00,WeatherDisplay:10.37,2013-02-21 20:10:00,
2013-02-21 14:20:00,27.3,20.4,29.47,NE,39,3.0,12.0,75,0.00,CLR,,0.00,WeatherDisplay:10.37,2013-02-21 20:20:00,
2013-02-21 14:30:00,27.3,20.4,29.47,NE,55,2.0,12.0,75,0.00,CLR,,0.00,WeatherDisplay:10.37,2013-02-21 20:30:00,
2013-02-21 14:40:00,27.3,20.7,29.48,ENE,61,5.0,9.0,76,0.00,CLR,,0.00,WeatherDisplay:10.37,2013-02-21 20:40:00,
2013-02-21 14:50:00,27.4,20.9,29.49,ENE,62,3.0,8.0,76,0.00,CLR,,0.00,WeatherDisplay:10.37,2013-02-21 20:50:00,
2013-02-21 15:00:00,27.6,20.7,29.49,ENE,67,3.0,9.0,75,0.00,CLR,,0.00,WeatherDisplay:10.37,2013-02-21 21:00:00,
2013-02-21 15:10:00,27.6,20.7,29.49,East,101,3.0,7.0,75,0.00,CLR,,0.00,WeatherDisplay:10.37,2013-02-21 21:10:00,
2013-02-21 15:20:00,27.6,20.7,29.49,East,92,5.0,10.0,75,0.00,CLR,,0.00,WeatherDisplay:10.37,2013-02-21 21:20:00,
2013-02-21 15:30:00,27.4,20.2,29.48,ENE,65,2.0,9.0,74,0.00,CLR,,0.00,WeatherDisplay:10.37,2013-02-21 21:30:00,
2013-02-21 15:40:00,27.3,20.4,29.47,ESE,111,3.0,8.0,75,0.00,CLR,,0.00,WeatherDisplay:10.37,2013-02-21 21:40:00,
2013-02-21 15:50:00,27.1,20.0,29.47,ENE,72,5.0,9.0,74,0.00,CLR,,0.00,WeatherDisplay:10.37,2013-02-21 21:50:00,
2013-02-21 16:00:00,27.2,19.6,29.47,ESE,108,2.0,8.0,73,0.00,CLR,,0.00,WeatherDisplay:10.37,2013-02-21 22:00:00,
2013-02-21 16:10:00,26.8,19.3,29.46,SE,130,3.0,10.0,73,0.00,CLR,,0.00,WeatherDisplay:10.37,2013-02-21 22:10:00,
2013-02-21 16:20:00,26.6,19.1,29.47,East,92,2.0,9.0,73,0.00,CLR,,0.00,WeatherDisplay:10.37,2013-02-21 22:20:00,
2013-02-21 16:30:00,26.4,18.9,29.47,East,91,2.0,8.0,73,0.00,CLR,,0.00,WeatherDisplay:10.37,2013-02-21 22:30:00,
2013-02-21 16:40:00,26.3,18.5,29.47,East,91,2.0,7.0,72,0.00,CLR,,0.00,WeatherDisplay:10.37,2013-02-21 22:40:00,
2013-02-21 16:50:00,26.0,18.2,29.46,SE,128,6.0,12.0,72,0.00,CLR,,0.00,WeatherDisplay:10.37,2013-02-21 22:50:00,
2013-02-21 17:00:00,25.8,18.0,29.46,ESE,110,2.0,8.0,72,0.00,CLR,,0.00,WeatherDisplay:10.37,2013-02-21 23:00:00,
2013-02-21 17:10:00,25.8,17.7,29.45,East,98,2.0,8.0,71,0.00,CLR,,0.00,WeatherDisplay:10.37,2013-02-21 23:10:00,
2013-02-21 17:20:00,25.7,17.6,29.45,ESE,109,1.0,12.0,71,0.00,CLR,,0.00,WeatherDisplay:10.37,2013-02-21 23:20:00,
2013-02-21 17:30:00,25.8,17.7,29.44,SE,140,1.0,9.0,71,0.00,CLR,,0.00,WeatherDisplay:10.37,2013-02-21 23:30:00,
2013-02-21 17:40:00,25.8,17.4,29.44,SE,142,3.0,10.0,70,0.00,CLR,,0.00,WeatherDisplay:10.37,2013-02-21 23:40:00,
2013-02-21 17:50:00,25.8,17.0,29.44,SE,131,3.0,9.0,69,0.00,CLR,,0.00,WeatherDisplay:10.37,2013-02-21 23:50:00,
2013-02-21 18:00:00,25.9,17.2,29.43,ESE,123,1.0,15.0,69,0.00,CLR,,0.00,WeatherDisplay:10.37,2013-02-22 00:00:00,
2013-02-21 18:10:00,26.0,17.2,29.43,SE,131,3.0,14.0,69,0.00,CLR,,0.00,WeatherDisplay:10.37,2013-02-22 00:10:00,
2013-02-21 18:20:00,26.0,17.2,29.41,ESE,109,5.0,12.0,69,0.00,CLR,,0.00,WeatherDisplay:10.37,2013-02-22 00:20:00,
2013-02-21 18:30:00,25.9,17.2,29.41,SE,126,6.0,13.0,69,0.00,CLR,,0.00,WeatherDisplay:10.37,2013-02-22 00:30:00,
2013-02-21 18:40:00,26.0,16.8,29.41,ESE,120,2.0,12.0,68,0.00,CLR,,0.00,WeatherDisplay:10.37,2013-02-22 00:40:00,
2013-02-21 18:50:00,25.9,16.8,29.40,East,94,3.0,12.0,68,0.00,CLR,,0.00,WeatherDisplay:10.37,2013-02-22 00:50:00,
2013-02-21 19:00:00,26.0,16.9,29.40,SE,143,2.0,14.0,68,0.00,CLR,,0.00,WeatherDisplay:10.37,2013-02-22 01:00:00,
2013-02-21 19:10:00,26.1,16.9,29.40,SE,128,5.0,10.0,68,0.00,CLR,,0.00,WeatherDisplay:10.37,2013-02-22 01:10:00,
2013-02-21 19:20:00,26.1,17.0,29.39,ESE,107,2.0,8.0,68,0.00,CLR,,0.00,WeatherDisplay:10.37,2013-02-22 01:20:00,
2013-02-21 19:30:00,26.1,17.0,29.39,SSE,155,2.0,9.0,68,0.00,CLR,,0.00,WeatherDisplay:10.37,2013-02-22 01:30:00,
2013-02-21 19:40:00,26.3,17.2,29.40,ESE,117,3.0,10.0,68,0.00,CLR,,0.00,WeatherDisplay:10.37,2013-02-22 01:40:00,
2013-02-21 19:50:00,26.3,16.8,29.39,ESE,121,2.0,14.0,67,0.00,CLR,,0.00,WeatherDisplay:10.37,2013-02-22 01:50:00,
2013-02-21 20:00:00,26.3,16.8,29.38,SE,143,3.0,13.0,67,0.00,CLR,,0.00,WeatherDisplay:10.37,2013-02-22 02:00:00,
2013-02-21 20:10:00,26.3,16.8,29.36,SE,142,5.0,13.0,67,0.00,CLR,,0.00,WeatherDisplay:10.37,2013-02-22 02:10:00,
2013-02-21 20:20:00,26.3,16.8,29.34,SE,141,5.0,14.0,67,0.00,CLR,,0.00,WeatherDisplay:10.37,2013-02-22 02:20:00,
2013-02-21 20:30:00,26.4,16.9,29.33,SE,124,5.0,12.0,67,0.00,CLR,,0.00,WeatherDisplay:10.37,2013-02-22 02:30:00,
2013-02-21 20:40:00,26.3,17.2,29.31,ESE,113,5.0,13.0,68,0.00,CLR,,0.00,WeatherDisplay:10.37,2013-02-22 02:40:00,
2013-02-21 20:50:00,26.4,16.9,29.32,SE,146,5.0,13.0,67,0.00,CLR,,0.00,WeatherDisplay:10.37,2013-02-22 02:50:00,
2013-02-21 21:00:00,26.4,16.9,29.33,SSE,147,3.0,16.0,67,0.00,CLR,,0.00,WeatherDisplay:10.37,2013-02-22 03:00:00,
2013-02-21 21:10:00,26.4,17.3,29.33,SSE,163,1.0,15.0,68,0.00,CLR,,0.00,WeatherDisplay:10.37,2013-02-22 03:10:00,
2013-02-21 21:20:00,26.5,17.0,29.31,SE,132,5.0,15.0,67,0.00,CLR,,0.00,WeatherDisplay:10.37,2013-02-22 03:20:00,
2013-02-21 21:30:00,26.4,16.9,29.30,SE,135,3.0,10.0,67,0.00,CLR,,0.00,WeatherDisplay:10.37,2013-02-22 03:30:00,
2013-02-21 21:40:00,26.6,17.1,29.31,SE,138,2.0,13.0,67,0.00,CLR,,0.00,WeatherDisplay:10.37,2013-02-22 03:40:00,
2013-02-21 21:50:00,26.6,17.1,29.31,SE,141,5.0,15.0,67,0.00,CLR,,0.00,WeatherDisplay:10.37,2013-02-22 03:50:00,
2013-02-21 22:00:00,26.6,17.1,29.31,SE,132,3.0,13.0,67,0.00,CLR,,0.00,WeatherDisplay:10.37,2013-02-22 04:00:00,
2013-02-21 22:10:00,26.6,17.1,29.30,SE,132,3.0,10.0,67,0.00,CLR,,0.00,WeatherDisplay:10.37,2013-02-22 04:10:00,
2013-02-21 22:20:00,26.6,17.1,29.30,SSE,158,6.0,17.0,67,0.00,CLR,,0.00,WeatherDisplay:10.37,2013-02-22 04:20:00,
2013-02-21 22:30:00,26.6,17.1,29.30,SE,140,2.0,10.0,67,0.00,CLR,,0.00,WeatherDisplay:10.37,2013-02-22 04:30:00,
2013-02-21 22:40:00,26.4,16.9,29.29,SE,131,5.0,12.0,67,0.00,CLR,,0.00,WeatherDisplay:10.37,2013-02-22 04:40:00,
2013-02-21 22:50:00,26.4,17.3,29.29,SE,137,3.0,13.0,68,0.00,CLR,,0.00,WeatherDisplay:10.37,2013-02-22 04:50:00,
2013-02-21 23:00:00,26.2,17.1,29.29,SE,129,2.0,14.0,68,0.00,CLR,,0.00,WeatherDisplay:10.37,2013-02-22 05:00:00,
2013-02-21 23:10:00,25.8,17.0,29.28,SE,135,2.0,14.0,69,0.00,CLR,,0.00,WeatherDisplay:10.37,2013-02-22 05:10:00,
2013-02-21 23:20:00,25.4,17.3,29.28,SE,140,1.0,12.0,71,0.00,CLR,,0.00,WeatherDisplay:10.37,2013-02-22 05:20:00,
2013-02-21 23:30:00,25.1,17.7,29.27,SSE,155,2.0,8.0,73,0.00,CLR,,0.00,WeatherDisplay:10.37,2013-02-22 05:30:00,
2013-02-21 23:40:00,24.8,17.7,29.27,SE,130,2.0,6.0,74,0.00,CLR,,0.00,WeatherDisplay:10.37,2013-02-22 05:40:00,
2013-02-21 23:50:00,24.6,17.5,29.26,SE,132,3.0,6.0,74,0.00,CLR,,0.00,WeatherDisplay:10.37,2013-02-22 05:50:00,